レモン-パンスターズ彗星

481P/Lemmon-PanSTARRS (2013)

English version
Home page
Updated on April 9, 2024

---------------------------------------------------------------------

・ プロフィール

符号 481P/2012 WA34
発見日 2012年11月26日、2013年1月7日
発見光度 20.5等、21.1等
発見者 A. Boattini (Mount Lemmon Survey), Pan-STARRS 1 telescope (Haleakala)

・ 軌道要素

                    Epoch = 2013 Jan. 28.0 TT
     T = 2013 Jan. 24.74500 TT        Peri. = 353.15904
     e = 0.3396577                    Node  =  94.52353 2000.0
     q = 3.1734284 AU                 Incl. =   6.11884
       a =  4.8057323 AU   n = 0.09355451   P =  10.54 years

・ 光度変化

        m1 = 13.5 + 5 logΔ + 10.0 log r

---------------------------------------------------------------------

軌道要素は、CBET 5356に掲載されたものです。
光度グラフはComet for Windowsで作成したものです。

---------------------------------------------------------------------

Copyright(C) Seiichi Yoshida (comet@aerith.net). All rights reserved.